| time (UTC) | temp F | wind direction | speed MPH | gust MPH | rain 1hr in | rain 24hr in | rain mn in | humidity % | barometer mb |
| 20260508024651 | 46 | 0 | 0.0 | 0.0 | 0.00 | 0.00 | 0.00 | 57 | 1016.0 |
| 20260508023649 | 46 | 304 | 0.0 | 1.0 | 0.00 | 0.00 | 0.00 | 58 | 1015.9 |
| 20260508022648 | 46 | 0 | 0.0 | 0.0 | 0.00 | 0.00 | 0.00 | 57 | 1015.8 |
| 20260508021648 | 46 | 0 | 0.0 | 0.0 | 0.00 | 0.00 | 0.00 | 57 | 1015.8 |
| 20260508020734 | 47 | 0 | 0.0 | 0.0 | 0.00 | 0.00 | 0.00 | 56 | 1015.7 |
| 20260508020649 | 47 | 0 | 0.0 | 0.0 | 0.00 | 0.00 | 0.00 | 56 | 1015.7 |
| 20260508015653 | 47 | 0 | 0.0 | 0.0 | 0.00 | 0.00 | 0.00 | 56 | 1015.8 |
| 20260508014720 | 47 | 0 | 0.0 | 0.0 | 0.00 | 0.00 | 0.00 | 56 | 1015.8 |
| 20260508014649 | 47 | 0 | 0.0 | 0.0 | 0.00 | 0.00 | 0.00 | 56 | 1015.8 |
| 20260508013731 | 48 | 0 | 0.0 | 0.0 | 0.00 | 0.00 | 0.00 | 56 | 1015.7 |
| 20260508013649 | 48 | 0 | 0.0 | 0.0 | 0.00 | 0.00 | 0.00 | 56 | 1015.7 |
| 20260508012650 | 49 | 304 | 0.0 | 1.0 | 0.00 | 0.00 | 0.00 | 53 | 1015.6 |
| 20260508011649 | 49 | 304 | 0.0 | 1.0 | 0.00 | 0.00 | 0.00 | 53 | 1015.6 |
| 20260508010651 | 50 | 304 | 0.0 | 1.0 | 0.00 | 0.00 | 0.00 | 51 | 1015.5 |
| 20260508005650 | 50 | 309 | 0.0 | 1.0 | 0.00 | 0.00 | 0.00 | 49 | 1015.5 |
| 20260508004649 | 50 | 309 | 0.0 | 1.0 | 0.00 | 0.00 | 0.00 | 49 | 1015.5 |
| 20260508003648 | 51 | 299 | 1.0 | 2.0 | 0.00 | 0.00 | 0.00 | 47 | 1015.2 |
| 20260508002652 | 52 | 299 | 1.0 | 3.0 | 0.00 | 0.00 | 0.00 | 46 | 1015.0 |
| 20260508001647 | 52 | 299 | 1.0 | 3.0 | 0.00 | 0.00 | 0.00 | 46 | 1015.0 |
| 20260508000652 | 52 | 304 | 2.0 | 6.0 | 0.00 | 0.00 | 0.00 | 46 | 1014.8 |
| 20260507235749 | 53 | 305 | 3.0 | 8.0 | 0.00 | 0.00 | 0.00 | 46 | 1014.8 |
| 20260507235651 | 53 | 305 | 3.0 | 8.0 | 0.00 | 0.00 | 0.00 | 46 | 1014.8 |
| 20260507234648 | 53 | 305 | 3.0 | 8.0 | 0.00 | 0.00 | 0.00 | 46 | 1014.8 |
| 20260507233649 | 53 | 303 | 3.0 | 9.0 | 0.00 | 0.00 | 0.00 | 48 | 1014.6 |
| 20260507232648 | 53 | 299 | 1.0 | 5.0 | 0.00 | 0.00 | 0.00 | 55 | 1014.5 |
| 20260507231845 | 53 | 299 | 1.0 | 5.0 | 0.00 | 0.00 | 0.00 | 55 | 1014.5 |
| 20260507231647 | 53 | 299 | 1.0 | 5.0 | 0.00 | 0.00 | 0.00 | 55 | 1014.5 |
| 20260507230649 | 53 | 300 | 2.0 | 5.0 | 0.00 | 0.00 | 0.00 | 56 | 1014.5 |
| 20260507230008 | 54 | 315 | 2.0 | 8.0 | 0.00 | 0.00 | 0.00 | 56 | 1014.7 |
| 20260507225649 | 54 | 315 | 2.0 | 8.0 | 0.00 | 0.00 | 0.00 | 56 | 1014.7 |
| 20260507225008 | 54 | 315 | 2.0 | 8.0 | 0.00 | 0.00 | 0.00 | 56 | 1014.7 |
| 20260507224649 | 54 | 315 | 2.0 | 8.0 | 0.00 | 0.00 | 0.00 | 56 | 1014.7 |
| 20260507223649 | 55 | 302 | 3.0 | 8.0 | 0.00 | 0.00 | 0.00 | 53 | 1014.5 |
| 20260507222649 | 56 | 316 | 2.0 | 6.0 | 0.00 | 0.00 | 0.00 | 52 | 1014.4 |
| 20260507222005 | 56 | 316 | 2.0 | 6.0 | 0.00 | 0.00 | 0.00 | 52 | 1014.4 |
| 20260507221647 | 56 | 316 | 2.0 | 6.0 | 0.00 | 0.00 | 0.00 | 52 | 1014.4 |
| 20260507220649 | 55 | 317 | 1.0 | 6.0 | 0.00 | 0.00 | 0.00 | 52 | 1014.2 |
| 20260507215744 | 56 | 308 | 2.0 | 4.0 | 0.00 | 0.00 | 0.00 | 48 | 1014.0 |
| 20260507215647 | 56 | 308 | 2.0 | 4.0 | 0.00 | 0.00 | 0.00 | 48 | 1014.0 |
| 20260507214648 | 56 | 308 | 2.0 | 4.0 | 0.00 | 0.00 | 0.00 | 48 | 1014.0 |
| 20260507213649 | 57 | 287 | 2.0 | 5.0 | 0.00 | 0.00 | 0.00 | 47 | 1013.8 |
| 20260507212650 | 58 | 295 | 2.0 | 6.0 | 0.00 | 0.00 | 0.00 | 45 | 1013.6 |
| 20260507211648 | 58 | 295 | 2.0 | 6.0 | 0.00 | 0.00 | 0.00 | 45 | 1013.6 |
| 20260507210649 | 58 | 283 | 2.0 | 6.0 | 0.00 | 0.00 | 0.00 | 45 | 1013.4 |
| 20260507205749 | 58 | 290 | 2.0 | 7.0 | 0.00 | 0.00 | 0.00 | 47 | 1013.4 |
| 20260507205650 | 58 | 290 | 2.0 | 7.0 | 0.00 | 0.00 | 0.00 | 47 | 1013.4 |
| 20260507204808 | 58 | 290 | 2.0 | 7.0 | 0.00 | 0.00 | 0.00 | 47 | 1013.4 |
| 20260507204649 | 58 | 290 | 2.0 | 7.0 | 0.00 | 0.00 | 0.00 | 47 | 1013.4 |
| 20260507203648 | 58 | 293 | 2.0 | 4.0 | 0.00 | 0.00 | 0.00 | 49 | 1013.4 |
| 20260507202801 | 57 | 287 | 1.0 | 3.0 | 0.00 | 0.00 | 0.00 | 47 | 1013.4 |
| 20260507202648 | 57 | 287 | 1.0 | 3.0 | 0.00 | 0.00 | 0.00 | 47 | 1013.4 |
| 20260507201800 | 57 | 287 | 1.0 | 3.0 | 0.00 | 0.00 | 0.00 | 47 | 1013.4 |
| 20260507201649 | 57 | 287 | 1.0 | 3.0 | 0.00 | 0.00 | 0.00 | 47 | 1013.4 |
| 20260507200652 | 57 | 290 | 1.0 | 4.0 | 0.00 | 0.00 | 0.00 | 46 | 1013.6 |
| 20260507195740 | 57 | 284 | 2.0 | 6.0 | 0.00 | 0.00 | 0.00 | 46 | 1013.7 |
| 20260507195648 | 57 | 284 | 2.0 | 6.0 | 0.00 | 0.00 | 0.00 | 46 | 1013.7 |
| 20260507194842 | 57 | 284 | 2.0 | 6.0 | 0.00 | 0.00 | 0.00 | 46 | 1013.7 |
| 20260507194651 | 57 | 284 | 2.0 | 6.0 | 0.00 | 0.00 | 0.00 | 46 | 1013.7 |
| 20260507193649 | 57 | 290 | 1.0 | 4.0 | 0.00 | 0.00 | 0.00 | 45 | 1013.8 |
| 20260507192653 | 57 | 283 | 1.0 | 4.0 | 0.00 | 0.00 | 0.00 | 45 | 1013.7 |
| 20260507191729 | 57 | 283 | 1.0 | 4.0 | 0.00 | 0.00 | 0.00 | 45 | 1013.7 |
| 20260507191649 | 57 | 283 | 1.0 | 4.0 | 0.00 | 0.00 | 0.00 | 45 | 1013.7 |
| 20260507190650 | 58 | 291 | 1.0 | 3.0 | 0.00 | 0.00 | 0.00 | 44 | 1013.4 |
| 20260507185734 | 58 | 276 | 1.0 | 4.0 | 0.00 | 0.00 | 0.00 | 46 | 1013.7 |
| 20260507185649 | 58 | 276 | 1.0 | 4.0 | 0.00 | 0.00 | 0.00 | 46 | 1013.7 |
| 20260507184649 | 58 | 276 | 1.0 | 4.0 | 0.00 | 0.00 | 0.00 | 46 | 1013.7 |
| 20260507183650 | 57 | 290 | 1.0 | 4.0 | 0.00 | 0.00 | 0.00 | 46 | 1013.6 |
| 20260507182650 | 58 | 292 | 1.0 | 5.0 | 0.00 | 0.00 | 0.00 | 44 | 1013.8 |
| 20260507181649 | 58 | 292 | 1.0 | 5.0 | 0.00 | 0.00 | 0.00 | 44 | 1013.8 |
| 20260507180649 | 58 | 280 | 1.0 | 6.0 | 0.00 | 0.00 | 0.00 | 44 | 1013.9 |
| 20260507175648 | 58 | 288 | 2.0 | 4.0 | 0.00 | 0.00 | 0.00 | 45 | 1013.9 |
| 20260507174648 | 58 | 288 | 2.0 | 4.0 | 0.00 | 0.00 | 0.00 | 45 | 1013.9 |
| 20260507173651 | 59 | 282 | 2.0 | 5.0 | 0.00 | 0.00 | 0.00 | 41 | 1014.0 |
| 20260507172728 | 60 | 279 | 2.0 | 7.0 | 0.00 | 0.00 | 0.00 | 46 | 1014.1 |
| 20260507172649 | 60 | 279 | 2.0 | 7.0 | 0.00 | 0.00 | 0.00 | 46 | 1014.1 |
| 20260507171647 | 60 | 279 | 2.0 | 7.0 | 0.00 | 0.00 | 0.00 | 46 | 1014.1 |
| 20260507170648 | 60 | 285 | 2.0 | 4.0 | 0.00 | 0.00 | 0.00 | 44 | 1014.1 |
| 20260507165648 | 58 | 263 | 2.0 | 7.0 | 0.00 | 0.00 | 0.00 | 48 | 1014.2 |
| 20260507164648 | 58 | 263 | 2.0 | 7.0 | 0.00 | 0.00 | 0.00 | 48 | 1014.2 |
| 20260507163649 | 58 | 276 | 2.0 | 6.0 | 0.00 | 0.00 | 0.00 | 47 | 1014.3 |
| 20260507161652 | 57 | 250 | 3.0 | 8.0 | 0.00 | 0.00 | 0.00 | 50 | 1014.4 |
| 20260507160648 | 58 | 281 | 2.0 | 4.0 | 0.00 | 0.00 | 0.00 | 47 | 1014.5 |
| 20260507155746 | 58 | 295 | 1.0 | 4.0 | 0.00 | 0.00 | 0.00 | 53 | 1014.5 |
| 20260507155649 | 58 | 295 | 1.0 | 4.0 | 0.00 | 0.00 | 0.00 | 53 | 1014.5 |
| 20260507154810 | 58 | 295 | 1.0 | 4.0 | 0.00 | 0.00 | 0.00 | 53 | 1014.5 |
| 20260507154648 | 58 | 295 | 1.0 | 4.0 | 0.00 | 0.00 | 0.00 | 53 | 1014.5 |
| 20260507153648 | 56 | 256 | 2.0 | 6.0 | 0.00 | 0.00 | 0.00 | 53 | 1014.5 |
| 20260507152650 | 55 | 275 | 1.0 | 3.0 | 0.00 | 0.00 | 0.00 | 53 | 1014.7 |
| 20260507151648 | 55 | 275 | 1.0 | 3.0 | 0.00 | 0.00 | 0.00 | 53 | 1014.7 |
| 20260507150650 | 55 | 283 | 1.0 | 3.0 | 0.00 | 0.00 | 0.00 | 54 | 1014.7 |
| 20260507145648 | 54 | 256 | 1.0 | 4.0 | 0.00 | 0.00 | 0.00 | 56 | 1014.9 |
| 20260507144747 | 54 | 256 | 1.0 | 4.0 | 0.00 | 0.00 | 0.00 | 56 | 1014.9 |
| 20260507144657 | 54 | 256 | 1.0 | 4.0 | 0.00 | 0.00 | 0.00 | 56 | 1014.9 |
| 20260507143728 | 54 | 237 | 2.0 | 7.0 | 0.00 | 0.00 | 0.00 | 59 | 1014.7 |
| 20260507143649 | 54 | 237 | 2.0 | 7.0 | 0.00 | 0.00 | 0.00 | 59 | 1014.7 |
| 20260507142649 | 54 | 237 | 3.0 | 7.0 | 0.00 | 0.00 | 0.00 | 57 | 1015.0 |
| 20260507141647 | 54 | 237 | 3.0 | 7.0 | 0.00 | 0.00 | 0.00 | 57 | 1015.0 |
| 20260507140648 | 54 | 265 | 1.0 | 3.0 | 0.00 | 0.00 | 0.00 | 63 | 1015.1 |
| 20260507135805 | 54 | 239 | 1.0 | 5.0 | 0.00 | 0.00 | 0.00 | 62 | 1015.4 |
| 20260507135653 | 54 | 239 | 1.0 | 5.0 | 0.00 | 0.00 | 0.00 | 62 | 1015.4 |
| 20260507134730 | 54 | 239 | 1.0 | 5.0 | 0.00 | 0.00 | 0.00 | 62 | 1015.4 |
| 20260507134651 | 54 | 239 | 1.0 | 5.0 | 0.00 | 0.00 | 0.00 | 62 | 1015.4 |
| 20260507133650 | 53 | 260 | 1.0 | 3.0 | 0.00 | 0.00 | 0.00 | 65 | 1015.6 |
| 20260507132728 | 52 | 266 | 1.0 | 4.0 | 0.00 | 0.00 | 0.00 | 67 | 1015.5 |
| 20260507132653 | 52 | 266 | 1.0 | 4.0 | 0.00 | 0.00 | 0.00 | 67 | 1015.5 |
| 20260507131810 | 52 | 266 | 1.0 | 4.0 | 0.00 | 0.00 | 0.00 | 67 | 1015.5 |
| 20260507131648 | 52 | 266 | 1.0 | 4.0 | 0.00 | 0.00 | 0.00 | 67 | 1015.5 |
| 20260507130651 | 50 | 255 | 2.0 | 4.0 | 0.00 | 0.00 | 0.00 | 69 | 1015.6 |
| 20260507125647 | 49 | 251 | 1.0 | 4.0 | 0.00 | 0.00 | 0.00 | 73 | 1015.7 |
| 20260507124653 | 49 | 251 | 1.0 | 4.0 | 0.00 | 0.00 | 0.00 | 73 | 1015.7 |
| 20260507123755 | 48 | 242 | 1.0 | 3.0 | 0.00 | 0.00 | 0.00 | 75 | 1015.4 |
| 20260507123649 | 48 | 242 | 1.0 | 3.0 | 0.00 | 0.00 | 0.00 | 75 | 1015.4 |
| 20260507123009 | 46 | 248 | 1.0 | 3.0 | 0.00 | 0.00 | 0.00 | 75 | 1015.6 |
| 20260507122648 | 46 | 248 | 1.0 | 3.0 | 0.00 | 0.00 | 0.00 | 75 | 1015.6 |
| 20260507121649 | 46 | 248 | 1.0 | 3.0 | 0.00 | 0.00 | 0.00 | 75 | 1015.6 |
| 20260507120649 | 45 | 255 | 1.0 | 3.0 | 0.00 | 0.00 | 0.00 | 77 | 1015.6 |
| 20260507115647 | 44 | 247 | 2.0 | 4.0 | 0.00 | 0.01 | 0.00 | 78 | 1015.6 |
| 20260507114652 | 44 | 247 | 2.0 | 4.0 | 0.00 | 0.01 | 0.00 | 78 | 1015.6 |
| 20260507113649 | 42 | 244 | 2.0 | 3.0 | 0.00 | 0.01 | 0.00 | 81 | 1015.6 |
| 20260507112648 | 41 | 239 | 2.0 | 4.0 | 0.00 | 0.01 | 0.00 | 82 | 1015.5 |
| 20260507111654 | 41 | 239 | 2.0 | 4.0 | 0.00 | 0.01 | 0.00 | 82 | 1015.5 |
| 20260507110651 | 41 | 238 | 2.0 | 3.0 | 0.00 | 0.01 | 0.00 | 83 | 1015.3 |
| 20260507105721 | 41 | 243 | 1.0 | 2.0 | 0.00 | 0.01 | 0.00 | 82 | 1015.3 |
| 20260507105647 | 41 | 243 | 1.0 | 2.0 | 0.00 | 0.01 | 0.00 | 82 | 1015.3 |
| 20260507104743 | 41 | 243 | 1.0 | 2.0 | 0.00 | 0.01 | 0.00 | 82 | 1015.3 |
| 20260507104647 | 41 | 243 | 1.0 | 2.0 | 0.00 | 0.01 | 0.00 | 82 | 1015.3 |
| 20260507103650 | 42 | 242 | 2.0 | 3.0 | 0.00 | 0.02 | 0.00 | 81 | 1015.1 |
| 20260507102651 | 42 | 241 | 2.0 | 4.0 | 0.00 | 0.05 | 0.00 | 81 | 1014.9 |
| 20260507101649 | 42 | 241 | 2.0 | 4.0 | 0.00 | 0.05 | 0.00 | 81 | 1014.9 |
| 20260507100649 | 42 | 232 | 2.0 | 5.0 | 0.00 | 0.07 | 0.00 | 82 | 1014.8 |
| 20260507095648 | 42 | 238 | 2.0 | 4.0 | 0.00 | 0.12 | 0.00 | 81 | 1015.1 |
| 20260507094648 | 42 | 238 | 2.0 | 4.0 | 0.00 | 0.12 | 0.00 | 81 | 1015.1 |
| 20260507093648 | 42 | 230 | 2.0 | 4.0 | 0.00 | 0.12 | 0.00 | 81 | 1015.0 |
| 20260507092723 | 42 | 224 | 2.0 | 4.0 | 0.00 | 0.13 | 0.00 | 81 | 1015.0 |
| 20260507092648 | 42 | 224 | 2.0 | 4.0 | 0.00 | 0.13 | 0.00 | 81 | 1015.0 |
| 20260507091653 | 42 | 224 | 2.0 | 4.0 | 0.00 | 0.13 | 0.00 | 81 | 1015.0 |
| 20260507090650 | 42 | 219 | 2.0 | 4.0 | 0.00 | 0.14 | 0.00 | 80 | 1015.1 |
| 20260507085649 | 42 | 215 | 3.0 | 5.0 | 0.00 | 0.15 | 0.00 | 79 | 1015.2 |
| 20260507084722 | 42 | 215 | 3.0 | 5.0 | 0.00 | 0.15 | 0.00 | 79 | 1015.2 |
| 20260507084650 | 42 | 215 | 3.0 | 5.0 | 0.00 | 0.15 | 0.00 | 79 | 1015.2 |
| 20260507083655 | 42 | 212 | 2.0 | 4.0 | 0.00 | 0.18 | 0.00 | 78 | 1015.2 |
| 20260507082740 | 42 | 215 | 2.0 | 3.0 | 0.00 | 0.21 | 0.00 | 79 | 1015.3 |
| 20260507082648 | 42 | 215 | 2.0 | 3.0 | 0.00 | 0.21 | 0.00 | 79 | 1015.3 |
| 20260507081647 | 42 | 215 | 2.0 | 3.0 | 0.00 | 0.21 | 0.00 | 79 | 1015.3 |
| 20260507080648 | 42 | 214 | 2.0 | 4.0 | 0.00 | 0.24 | 0.00 | 79 | 1015.4 |
| 20260507075647 | 42 | 209 | 2.0 | 3.0 | 0.00 | 0.26 | 0.00 | 79 | 1015.6 |
| 20260507074651 | 42 | 209 | 2.0 | 3.0 | 0.00 | 0.26 | 0.00 | 79 | 1015.6 |
| 20260507073651 | 42 | 211 | 2.0 | 4.0 | 0.00 | 0.28 | 0.00 | 79 | 1015.4 |
| 20260507072803 | 42 | 214 | 2.0 | 4.0 | 0.00 | 0.30 | 0.00 | 77 | 1015.5 |
| 20260507072650 | 42 | 214 | 2.0 | 4.0 | 0.00 | 0.30 | 0.00 | 77 | 1015.5 |
| 20260507071650 | 42 | 214 | 2.0 | 4.0 | 0.00 | 0.30 | 0.00 | 77 | 1015.5 |
| 20260507070649 | 42 | 211 | 2.0 | 4.0 | 0.00 | 0.31 | 0.00 | 76 | 1015.6 |
| 20260507065704 | 42 | 190 | 1.0 | 2.0 | 0.00 | 0.33 | 0.00 | 77 | 1015.6 |
| 20260507064648 | 42 | 190 | 1.0 | 2.0 | 0.00 | 0.33 | 0.00 | 77 | 1015.6 |
| 20260507063649 | 42 | 0 | 0.0 | 0.0 | 0.00 | 0.35 | 0.00 | 78 | 1016.0 |
| 20260507062747 | 42 | 0 | 0.0 | 0.0 | 0.00 | 0.37 | 0.00 | 76 | 1016.0 |
| 20260507062648 | 42 | 0 | 0.0 | 0.0 | 0.00 | 0.37 | 0.00 | 76 | 1016.0 |
| 20260507061647 | 42 | 0 | 0.0 | 0.0 | 0.00 | 0.37 | 0.00 | 76 | 1016.0 |
| 20260507060650 | 42 | 0 | 0.0 | 0.0 | 0.00 | 0.38 | 0.00 | 75 | 1016.2 |
| 20260507055849 | 43 | 0 | 0.0 | 0.0 | 0.00 | 0.39 | 0.00 | 74 | 1016.2 |
| 20260507055658 | 43 | 0 | 0.0 | 0.0 | 0.00 | 0.39 | 0.00 | 74 | 1016.2 |
| 20260507054730 | 43 | 0 | 0.0 | 0.0 | 0.00 | 0.39 | 0.00 | 74 | 1016.2 |
| 20260507054654 | 43 | 0 | 0.0 | 0.0 | 0.00 | 0.39 | 0.00 | 74 | 1016.2 |
| 20260507053648 | 43 | 0 | 0.0 | 0.0 | 0.00 | 0.40 | 0.00 | 72 | 1016.2 |
| 20260507052648 | 44 | 0 | 0.0 | 0.0 | 0.00 | 0.42 | 0.00 | 71 | 1016.2 |
| 20260507051654 | 44 | 0 | 0.0 | 0.0 | 0.00 | 0.42 | 0.00 | 71 | 1016.2 |
| 20260507050647 | 44 | 0 | 0.0 | 0.0 | 0.00 | 0.44 | 0.00 | 73 | 1016.3 |
| 20260507045647 | 44 | 0 | 0.0 | 0.0 | 0.00 | 0.46 | 0.00 | 74 | 1016.6 |
| 20260507044649 | 44 | 0 | 0.0 | 0.0 | 0.00 | 0.46 | 0.00 | 74 | 1016.6 |
| 20260507043649 | 45 | 0 | 0.0 | 0.0 | 0.00 | 0.47 | 0.00 | 73 | 1016.7 |
| 20260507042654 | 45 | 0 | 0.0 | 0.0 | 0.00 | 0.49 | 0.00 | 73 | 1016.7 |
| 20260507041647 | 45 | 0 | 0.0 | 0.0 | 0.00 | 0.49 | 0.00 | 73 | 1016.7 |
| 20260507040647 | 45 | 72 | 0.0 | 1.0 | 0.00 | 0.50 | 0.00 | 70 | 1016.9 |
| 20260507035808 | 46 | 73 | 0.0 | 1.0 | 0.00 | 0.51 | 0.50 | 71 | 1016.8 |
| 20260507035654 | 46 | 73 | 0.0 | 1.0 | 0.00 | 0.51 | 0.50 | 71 | 1016.8 |
| 20260507034757 | 46 | 73 | 0.0 | 1.0 | 0.00 | 0.51 | 0.50 | 71 | 1016.8 |
| 20260507034649 | 46 | 73 | 0.0 | 1.0 | 0.00 | 0.51 | 0.50 | 71 | 1016.8 |
| 20260507033649 | 46 | 59 | 0.0 | 3.0 | 0.00 | 0.53 | 0.50 | 71 | 1016.9 |
| 20260507032649 | 46 | 75 | 1.0 | 4.0 | 0.00 | 0.58 | 0.50 | 70 | 1016.8 |
| 20260507031826 | 46 | 75 | 1.0 | 4.0 | 0.00 | 0.58 | 0.50 | 70 | 1016.8 |
| 20260507031653 | 46 | 75 | 1.0 | 4.0 | 0.00 | 0.58 | 0.50 | 70 | 1016.8 |
| 20260507030648 | 46 | 92 | 1.0 | 3.0 | 0.00 | 0.62 | 0.50 | 71 | 1016.8 |
| 20260507025649 | 46 | 68 | 1.0 | 3.0 | 0.00 | 0.65 | 0.50 | 71 | 1016.7 |
| 20260507024751 | 46 | 68 | 1.0 | 3.0 | 0.00 | 0.65 | 0.50 | 71 | 1016.7 |